Galveston, TX

7:15 AM CST on February 10, 2016 (GMT -0600)
Scholes International At Galveston

Weather History for KGLS - October, 2012

Change the Weather History Date:

Wednesday, October 24, 2012

  Actual Average Record
Temperature  
Mean Temperature 78 °F 72 °F  
Max Temperature 83 °F 79 °F 86 °F (1941)
Min Temperature 73 °F 66 °F 49 °F (1908)
Degree Days  
Heating Degree Days 0 0  
Month to date heating degree days 0 0  
Since 1 July heating degree days 0 0  
Cooling Degree Days 13 8  
Month to date cooling degree days 279 252  
Year to date cooling degree days 3725 3145  
Growing Degree Days 28 (Base 50)    
Moisture  
Dew Point 73 °F    
Average Humidity 84    
Maximum Humidity 93    
Minimum Humidity 74    
Precipitation  
Precipitation T in 0.16 in 4.17 in (1883)
Month to date precipitation 0.51 4.55  
Year to date precipitation 43.48 41.76  
Snow  
Snow 0.00 in - 0.00 in (2002)
Month to date snowfall 0.0  
Since 1 July snowfall 0.0  
Since 1 September snowfall 0.0  
Snow Depth 0.00 in    
Sea Level Pressure  
Sea Level Pressure 29.96 in    
Wind  
Wind Speed 9 mph (SE)    
Max Wind Speed 18 mph    
Max Gust Speed 23 mph    
Visibility 10 miles    
Events      
T = Trace of Precipitation, MM = Missing Value Source: NWS Daily Summary

Daily Weather History Graph

Daily Weather History Graph

Search for Another Location

Airport or City:

Trip Planner

Search our weather history database for the weather conditions in past years. The results will help you decide how hot, cold, wet, or windy it might be!

Date:

Astronomy

Oct. 24, 2012 Rise Set
Actual Time 7:26 AM CDT 6:39 PM CDT
Civil Twilight 7:02 AM CDT 7:03 PM CDT
Nautical Twilight 6:34 AM CDT 7:31 PM CDT
Astronomical Twilight 6:07 AM CDT 7:59 PM CDT
Moon 3:37 PM CDT (10/24) 2:44 AM CDT (10/24)
Length of Visible Light 12h 01m
Length of Day
11h 12m
Waxing Gibbous, 76% of the Moon is Illuminated
Oct 24
Waxing Gibbous
Oct 29
Full
Nov 6
Last Quarter
Nov 13
New
Nov 20
First Quarter

Hourly Weather History & Observations

Time (CDT) Temp. Heat Index Dew Point Humidity Pressure Visibility Wind Dir Wind Speed Gust Speed Precip Events Conditions
12:52 AM 75.0 °F - 72.0 °F 90% 29.99 in 10.0 mi ESE 5.8 mph - N/A   Clear
1:52 AM 75.0 °F - 72.0 °F 90% 29.98 in 10.0 mi SE 5.8 mph - N/A   Clear
2:52 AM 75.0 °F - 72.0 °F 90% 29.97 in 10.0 mi SE 4.6 mph - N/A   Clear
3:52 AM 73.9 °F - 72.0 °F 93% 29.96 in 10.0 mi SE 3.5 mph - N/A   Clear
4:52 AM 73.9 °F - 72.0 °F 93% 29.97 in 10.0 mi SSE 3.5 mph - N/A   Clear
5:52 AM 73.9 °F - 72.0 °F 93% 29.97 in 10.0 mi SSE 4.6 mph - N/A   Partly Cloudy
6:52 AM 75.0 °F - 71.1 °F 87% 29.99 in 10.0 mi SSE 8.1 mph - N/A   Partly Cloudy
7:52 AM 73.9 °F - 72.0 °F 93% 29.99 in 10.0 mi SE 5.8 mph - N/A   Partly Cloudy
8:52 AM 79.0 °F - 73.9 °F 84% 30.01 in 10.0 mi SE 6.9 mph - N/A   Partly Cloudy
10:52 AM 82.4 °F 88.2 °F 73.4 °F 74% 30.02 in 10.0 mi SE 10.4 mph - N/A   Partly Cloudy
11:52 AM 82.0 °F 87.4 °F 73.0 °F 74% 30.01 in 10.0 mi East 11.5 mph - N/A   Partly Cloudy
12:52 PM 82.0 °F 87.9 °F 73.9 °F 76% 29.99 in 10.0 mi ESE 11.5 mph - N/A   Clear
1:52 PM 82.0 °F 87.9 °F 73.9 °F 76% 29.97 in 10.0 mi East 11.5 mph - N/A   Clear
2:52 PM 82.0 °F 87.9 °F 73.9 °F 76% 29.95 in 10.0 mi East 13.8 mph - N/A   Clear
3:52 PM 81.0 °F 86.7 °F 75.0 °F 82% 29.94 in 10.0 mi ESE 13.8 mph - N/A   Clear
4:52 PM 82.0 °F 89.4 °F 75.9 °F 82% 29.93 in 10.0 mi East 11.5 mph - N/A   Clear
5:52 PM 80.1 °F 85.1 °F 75.0 °F 85% 29.93 in 10.0 mi ESE 11.5 mph - N/A   Mostly Cloudy
6:52 PM 79.0 °F - 73.9 °F 84% 29.93 in 10.0 mi ESE 9.2 mph - 0.00 in   Overcast
7:52 PM 78.8 °F - 73.4 °F 83% 29.94 in 10.0 mi ESE 11.5 mph - N/A   Scattered Clouds
8:02 PM 78.8 °F - 73.4 °F 83% 29.94 in 10.0 mi SE 11.5 mph - N/A   Mostly Cloudy
8:13 PM 78.8 °F - 73.4 °F 83% 29.94 in 10.0 mi SE 12.7 mph - N/A   Mostly Cloudy
8:52 PM 78.1 °F - 73.9 °F 87% 29.94 in 10.0 mi ESE 8.1 mph - N/A   Mostly Cloudy
9:52 PM 79.0 °F - 73.9 °F 84% 29.95 in 10.0 mi SE 9.2 mph - N/A   Overcast
10:52 PM 78.1 °F - 73.0 °F 84% 29.94 in 10.0 mi SE 11.5 mph - N/A   Scattered Clouds
11:52 PM 78.1 °F - 73.0 °F 84% 29.93 in 10.0 mi SE 15.0 mph - N/A   Partly Cloudy